Holloman AFB, NM

9:09 PM MDT on March 22, 2017 (GMT -0600)
Holloman Air Force Base

Weather History for KHMN - July, 2013

Change the Weather History Date:

Saturday, July 13, 2013

  Actual Average Record
Temperature  
Mean Temperature 84 °F -  
Max Temperature 99 °F 92 °F 103 °F (2016)
Min Temperature 68 °F 66 °F 64 °F (1999)
Cooling Degree Days 18    
Growing Degree Days 34 (Base 50)    
Moisture  
Dew Point 47 °F    
Average Humidity 28    
Maximum Humidity 53    
Minimum Humidity 13    
Precipitation  
Precipitation 0.00 in - - ()
Sea Level Pressure  
Sea Level Pressure 29.85 in    
Wind  
Wind Speed 7 mph (South)    
Max Wind Speed 20 mph    
Max Gust Speed 24 mph    
Visibility 10 miles    
Events      
Averages and records for this station are not official NWS values.
T = Trace of Precipitation, MM = Missing Value Source: NWS Daily Summary

Daily Weather History Graph

Daily Weather History Graph

Search for Another Location

Airport or City:

Trip Planner

Search our weather history database for the weather conditions in past years. The results will help you decide how hot, cold, wet, or windy it might be!

Date:

Astronomy

Jul. 13, 2013 Rise Set
Actual Time 6:06 AM MDT 8:14 PM MDT
Civil Twilight 5:37 AM MDT 8:42 PM MDT
Nautical Twilight 5:03 AM MDT 9:16 PM MDT
Astronomical Twilight 4:26 AM MDT 9:53 PM MDT
Moon 11:05 AM MDT (7/13) 11:17 PM MDT (7/13)
Length of Visible Light 15h 04m
Length of Day
14h 08m
Waxing Crescent, 26% of the Moon is Illuminated
Jul 13
Waxing Crescent
Jul 15
First Quarter
Jul 22
Full
Jul 29
Last Quarter
Aug 6
New

Hourly Weather History & Observations

Time (MDT) Temp. Dew Point Humidity Pressure Visibility Wind Dir Wind Speed Gust Speed Precip Events Conditions
12:55 AM 78.8 °F 53.6 °F 42% 30.04 in 10.0 mi SW 8.1 mph - N/A   Clear
1:58 AM 78.3 °F 49.8 °F 37% 29.82 in 10.0 mi SSW 9.2 mph - N/A   Clear
2:58 AM 80.1 °F 50.5 °F 36% 29.81 in 10.0 mi SSE 11.5 mph - N/A   Partly Cloudy
3:58 AM 76.3 °F 50.7 °F 41% 29.81 in 10.0 mi SSW 4.6 mph - N/A   Clear
4:58 AM 73.6 °F 51.1 °F 45% 29.83 in 10.0 mi Calm Calm - N/A   Partly Cloudy
5:58 AM 71.2 °F 50.9 °F 49% 29.84 in 10.0 mi NW 2.3 mph - N/A   Partly Cloudy
6:58 AM 68.9 °F 50.9 °F 53% 29.86 in 10.0 mi NNW 4.6 mph - N/A   Clear
7:58 AM 76.8 °F 51.1 °F 40% 29.87 in 10.0 mi NNW 2.3 mph - N/A   Clear
8:58 AM 82.0 °F 49.5 °F 32% 30.11 in 10.0 mi Calm Calm - N/A   Clear
9:58 AM 84.7 °F 49.5 °F 29% 30.10 in 10.0 mi Variable 1.2 mph - N/A   Clear
10:58 AM 88.2 °F 50.0 °F 27% 30.09 in 10.0 mi Variable 3.5 mph - N/A   Clear
11:58 AM 91.0 °F 49.6 °F 24% 30.07 in 10.0 mi SSE 4.6 mph - N/A   Clear
12:58 PM 92.5 °F 48.9 °F 22% 30.05 in 10.0 mi Variable 6.9 mph - N/A   Partly Cloudy
1:58 PM 95.2 °F 47.7 °F 20% 29.79 in 10.0 mi Variable 4.6 mph - N/A   Scattered Clouds
2:58 PM 95.7 °F 47.5 °F 19% 29.76 in 10.0 mi Variable 4.6 mph - N/A   Clear
3:58 PM 97.3 °F 43.2 °F 16% 29.74 in 10.0 mi SSW 5.8 mph - N/A   Clear
4:58 PM 99.3 °F 41.0 °F 13% 29.73 in 10.0 mi SSE 11.5 mph 21.9 mph N/A   Clear
5:58 PM 98.4 °F 40.3 °F 13% 29.70 in 10.0 mi South 19.6 mph 24.2 mph N/A   Clear
6:58 PM 96.8 °F 41.0 °F 15% 29.71 in 10.0 mi South 18.4 mph 24.2 mph N/A   Clear
7:58 PM 94.8 °F 42.1 °F 16% 29.71 in 10.0 mi SSE 10.4 mph - N/A   Partly Cloudy
8:58 PM 90.1 °F 43.2 °F 19% 29.73 in 10.0 mi SE 6.9 mph - N/A   Clear
9:58 PM 84.9 °F 44.4 °F 24% 29.78 in 10.0 mi SSE 9.2 mph - N/A   Clear
10:58 PM 87.1 °F 43.3 °F 22% 29.77 in 10.0 mi SE 10.4 mph - N/A   Clear
11:58 PM 85.8 °F 45.7 °F 25% 29.78 in 10.0 mi SSE 10.4 mph - N/A   Clear